Tracking 18980 objects as of 20-Feb-2018
HD Live streaming from Space Station
objects crossing your sky now

CZ-3B DEB

Track CZ-3B DEB now!


NORAD ID: 42460
Int'l Code: 2010-042AB
Perigee: 409.8 km
Apogee: 42,425.8 km
Inclination: 29.7 °
Period: 768.4 minutes
Semi major axis: 27788 km
RCS: Unknown
Launch date: September 4, 2010
Source: People's Republic of China (PRC)
Launch site: Xichang Space Center, China (XSC)

Note: This is SATELLITE DEBRIS
aabbcc
Your satellite tracking list
Your tracking list is empty




NASA's NSSDC Master Catalog

Two Line Element Set (TLE):
1 42460U 10042AB  18049.94897687 +.00000414 +00000-0 +11858-2 0  9997
2 42460 029.6566 206.8211 7559888 250.2473 020.0514 01.87412247022760
Source of the keplerian elements: AFSPC